User: anonymous   Login
Location: NJAA Observatory
(40.6819°N, 74.8979°W)
Time: 05:44:59
(UTC-04:00)
Language:

Cosmos 1461 - Orbit

View from above orbital plane
View from above orbital plane
View from above satellite
View from above satellite

Ground track
Ground track

The orbit data is extracted from the following two-line orbital elements,

1 14064U 83044A   16178.85635650 +.00000865 +00000-0 +89206-4 0  9993
2 14064 065.0020 303.7073 0107762 196.0223 163.7476 14.93047867670296
Epoch (UTC): 26 June 2016 20:33:09
Eccentricity: 0.0107762
inclination: 65.0020°
perigee height: 513 km
apogee height: 663 km
right ascension of ascending node: 303.7073°
argument of perigee: 196.0223°
revolutions per day: 14.93047867
mean anomaly at epoch: 163.7476°
orbit number at epoch: 67029

The dashed part of the orbit path shows where the satellite is in the earth's shadow,  

DLR